Location: Aiyekoto
(8.4333°N, 4.3667°E)
Time: 04:25:25
(UTC+00:00)

Hubble Space Telescope - Pass Details

Date: 18 August 2020
Orbit: 536 x 540 km, 28.5° (Epoch: 22 September)

Event Time Altitude Azimuth Distance (km) Brightness Sun altitude
Rises 19:47:05 0° 225° (SW) 2,666 4.7 -26.9°
Reaches altitude 10° 19:49:28 10° 217° (SW) 1,775 3.6 -27.5°
Enters shadow 19:49:36 11° 216° (SW) 1,730 3.5 -27.5°
